Simultaneous Nadir Overpasses (SNOs) Predictions

Prediction of SNOs between METOP-B and NOAA-19 Satellite Orbit:

Table of predicted SNOs for the next 14.0 days since TLE Epoch: 2/20/2021
Index Date (METOP-B) Time (METOP-B) Lat,Lon (METOP-B) SZA (METOP-B ) Date (NOAA-19) Time (NOAA-19) Lat,Lon (NOAA-19) SZA (NOAA-19 ) Distance(km) Time Diff (sec)
1 02/20/2021 05:26:25 -80.39, -55.05 88.08 02/20/2021 05:25:12 -80.41, -54.96 88.07 2.47 73
2 02/20/2021 06:17:04 80.41, 112.59 91.96 02/20/2021 06:16:13 80.39, 112.55 91.92 2.56 51
3 02/20/2021 07:07:46 -80.40, -80.21 88.08 02/20/2021 07:07:12 -80.40, -80.31 88.10 2.02 34
4 02/20/2021 07:58:26 80.40, 87.11 91.91 02/20/2021 07:58:13 80.39, 87.19 91.90 2.55 13
5 02/20/2021 08:49:08 -80.39,-105.69 88.12 02/20/2021 08:49:12 -80.39,-105.67 88.12 0.52 4
6 02/20/2021 09:39:48 80.39, 61.63 91.87 02/20/2021 09:40:14 80.40, 61.50 91.87 2.48 26
7 02/20/2021 10:30:30 -80.38,-131.17 88.17 02/20/2021 10:31:12 -80.38,-131.02 88.14 2.85 42
8 02/20/2021 11:21:10 80.38, 36.15 91.83 02/20/2021 11:22:14 80.39, 36.14 91.85 0.80 64
9 03/03/2021 07:30:23 80.41, 94.21 87.87 03/03/2021 07:29:13 80.42, 94.32 87.86 1.98 70
10 03/03/2021 08:21:05 -80.40, -98.55 92.16 03/03/2021 08:20:15 -80.42, -98.53 92.16 1.66 50
11 03/03/2021 09:11:44 80.43, 69.05 87.87 03/03/2021 09:11:13 80.41, 68.96 87.84 2.65 31
12 03/03/2021 10:02:26 -80.42,-123.71 92.16 03/03/2021 10:02:15 -80.41,-123.88 92.18 3.28 11
13 03/03/2021 10:53:06 80.41, 43.57 87.82 03/03/2021 10:53:13 80.40, 43.60 87.81 1.66 7
14 03/03/2021 11:43:48 -80.41,-149.19 92.21 03/03/2021 11:44:15 -80.40,-149.23 92.21 0.89 27
15 03/03/2021 12:34:28 80.40, 18.09 87.78 03/03/2021 12:35:13 80.39, 18.24 87.79 3.08 45



Historial Predications of SNOs between METOP-B and NOAA-19
